Wiley, CO

8:29 AM MST on February 07, 2016 (GMT -0700)
Lamar Municipal

Weather History for KLAA - October, 2012

Change the Weather History Date:

Wednesday, October 31, 2012

  Actual Average Record
Temperature  
Mean Temperature 56 °F 47 °F  
Max Temperature 79 °F 64 °F - ()
Min Temperature 33 °F 29 °F - ()
Degree Days  
Heating Degree Days 9 18  
Month to date heating degree days 408 384  
Since 1 July heating degree days 457 467  
Cooling Degree Days 0 0  
Month to date cooling degree days 1 9  
Year to date cooling degree days 1626 1121  
Growing Degree Days 8 (Base 50)    
Moisture  
Dew Point 28 °F    
Average Humidity 45    
Maximum Humidity 76    
Minimum Humidity 13    
Precipitation  
Precipitation 0.00 in 0.02 in - ()
Month to date precipitation 0.43 0.80  
Year to date precipitation 5.93 14.42  
Sea Level Pressure  
Sea Level Pressure 30.03 in    
Wind  
Wind Speed 6 mph (WSW)    
Max Wind Speed 14 mph    
Max Gust Speed 16 mph    
Visibility 10 miles    
Events      
T = Trace of Precipitation, MM = Missing Value Source: NWS Daily Summary

Daily Weather History Graph

Daily Weather History Graph

Search for Another Location

Airport or City:

Trip Planner

Search our weather history database for the weather conditions in past years. The results will help you decide how hot, cold, wet, or windy it might be!

Date:

Astronomy

Oct. 31, 2012 Rise Set
Actual Time 7:16 AM MDT 5:52 PM MDT
Civil Twilight 6:48 AM MDT 6:19 PM MDT
Nautical Twilight 6:17 AM MDT 6:50 PM MDT
Astronomical Twilight 5:46 AM MDT 7:21 PM MDT
Moon 7:06 PM MDT (10/31) 8:57 AM MDT (10/31)
Length of Visible Light 11h 30m
Length of Day
10h 36m
Full, 97% of the Moon is Illuminated
Oct 31
Full
Nov 6
Last Quarter
Nov 13
New
Nov 20
First Quarter
Nov 28
Full

Hourly Weather History & Observations

Time (MDT) Temp. Windchill Dew Point Humidity Pressure Visibility Wind Dir Wind Speed Gust Speed Precip Events Conditions
12:53 AM 39.0 °F 36.8 °F 30.9 °F 73% 30.02 in 10.0 mi SW 3.5 mph - N/A   Clear
1:53 AM 37.0 °F 31.6 °F 30.0 °F 76% 30.03 in 10.0 mi SSW 6.9 mph - N/A   Clear
2:53 AM 37.0 °F - 30.0 °F 76% 30.03 in 10.0 mi Calm Calm - N/A   Clear
3:53 AM 39.9 °F 34.5 °F 30.0 °F 68% 30.02 in 10.0 mi WSW 8.1 mph - N/A   Clear
4:53 AM 39.0 °F 34.8 °F 28.9 °F 67% 30.03 in 10.0 mi WSW 5.8 mph - N/A   Clear
5:53 AM 39.0 °F 36.8 °F 28.0 °F 65% 30.06 in 10.0 mi WSW 3.5 mph - N/A   Clear
6:53 AM 37.0 °F 31.6 °F 28.0 °F 70% 30.07 in 10.0 mi WSW 6.9 mph - N/A   Clear
7:53 AM 39.9 °F 35.1 °F 28.9 °F 65% 30.09 in 10.0 mi WSW 6.9 mph - N/A   Clear
8:53 AM 46.0 °F 42.5 °F 28.9 °F 51% 30.09 in 10.0 mi West 6.9 mph - N/A   Clear
9:53 AM 53.1 °F - 27.0 °F 37% 30.10 in 10.0 mi West 13.8 mph - N/A   Clear
10:53 AM 59.0 °F - 28.0 °F 31% 30.09 in 10.0 mi West 8.1 mph - N/A   Clear
11:53 AM 66.9 °F - 28.9 °F 24% 30.05 in 10.0 mi West 8.1 mph - N/A   Clear
12:53 PM 73.0 °F - 28.9 °F 20% 30.01 in 10.0 mi West 8.1 mph - N/A   Clear
1:53 PM 77.0 °F - 27.0 °F 16% 29.98 in 10.0 mi North 5.8 mph - N/A   Clear
2:53 PM 78.1 °F - 24.1 °F 14% 29.96 in 10.0 mi NW 6.9 mph - N/A   Clear
3:53 PM 77.0 °F - 24.1 °F 14% 29.95 in 10.0 mi ENE 6.9 mph - N/A   Clear
4:53 PM 75.9 °F - 25.0 °F 15% 29.96 in 10.0 mi NE 5.8 mph - N/A   Clear
5:53 PM 71.1 °F - 25.0 °F 18% 29.98 in 10.0 mi ESE 3.5 mph - N/A   Clear
6:53 PM 51.1 °F - 27.0 °F 39% 30.04 in 10.0 mi South 3.5 mph - N/A   Clear
7:53 PM 57.9 °F - 27.0 °F 31% 30.04 in 10.0 mi ENE 3.5 mph - N/A   Clear
8:53 PM 45.0 °F 41.8 °F 27.0 °F 49% 30.06 in 10.0 mi SSW 5.8 mph - N/A   Clear
9:53 PM 43.0 °F 39.5 °F 27.0 °F 53% 30.06 in 10.0 mi SSW 5.8 mph - N/A   Clear
10:53 PM 39.9 °F 36.7 °F 26.1 °F 58% 30.06 in 10.0 mi SSW 4.6 mph - N/A   Clear
11:53 PM 37.9 °F 35.5 °F 26.1 °F 62% 30.05 in 10.0 mi SW 3.5 mph - N/A   Clear